ETV Beaufort SC US WEATHERSTEM current weather conditions

sailwx.info

Wind from 053 at 9 knots gusting 13

Air temperature 8.1° C
Dewpoint 4.3° C

Last reported at 2020-Jan-18 12:00 UTC.
Time now 2020-Jan-18 12:24 UTC

Location: N 32°25' W 080°41'.
View on Google Maps.

See reports from other nearby stations

  
Tides and Currents Weather Stations Pressure Air Temp Water Temp Dewpoint Dewpoint Depression Visibility Wind Speed Wind Dir Waves Ship Positions
date/time (UTC)wind fromknots sea level pressurealtimeterstation pressurevisibilityair tempwater tempwave heightnotes
2020-Jan-18 12:00 053 9 gusting 13 8.1
2020-Jan-18 11:50 055 9 gusting 13 8.1
2020-Jan-18 11:40 049 10 gusting 13 8.2
2020-Jan-18 11:30 065 11 gusting 13 8.1
2020-Jan-18 11:20 053 9 gusting 13 8.2
2020-Jan-18 11:00 061 12 gusting 13 8.2
2020-Jan-18 10:50 060 10 gusting 13 8.1
2020-Jan-18 10:40 040 13 gusting 14 8.1
2020-Jan-18 10:30 040 12 gusting 12 8.1
2020-Jan-18 10:20 065 6 gusting 13 8.2
2020-Jan-18 10:00 042 12 gusting 13 8.1
2020-Jan-18 09:50 042 10 gusting 13 8.1
2020-Jan-18 09:40 044 7 gusting 14 8.1
2020-Jan-18 09:30 063 11 gusting 13 8.1
2020-Jan-18 09:00 043 11 gusting 13 7.9
2020-Jan-18 08:50 053 9 gusting 13 7.9
2020-Jan-18 08:40 055 11 gusting 13 7.9
2020-Jan-18 08:20 049 8 gusting 13 7.8
2020-Jan-18 08:00 060 8 gusting 13 7.8
2020-Jan-18 07:50 056 10 gusting 11 8.1
2020-Jan-18 07:40 054 6 gusting 13 8.2
2020-Jan-18 07:30 065 10 gusting 13 8.2
2020-Jan-18 07:20 044 12 gusting 13 8.2
2020-Jan-18 07:00 055 12 gusting 13 8.1
2020-Jan-18 06:50 047 7 gusting 11 8.1
2020-Jan-18 06:40 065 9 gusting 13 8.0
2020-Jan-18 06:30 055 10 gusting 13 8.1
2020-Jan-18 06:20 059 7 gusting 11 8.0
2020-Jan-18 06:00 051 10 gusting 12 7.9
2020-Jan-18 05:50 042 7 gusting 11 8.1
2020-Jan-18 05:40 064 11 gusting 12 8.2
2020-Jan-18 05:20 067 10 gusting 12 8.4
2020-Jan-18 05:00 059 12 gusting 13 8.3
2020-Jan-18 04:50 062 6 gusting 12 8.2
2020-Jan-18 04:40 068 10 gusting 12 8.2
2020-Jan-18 04:30 031 8 gusting 10 8.3
2020-Jan-18 04:20 062 6 gusting 11 8.4
2020-Jan-18 04:00 062 7 gusting 10 8.7
2020-Jan-18 03:50 049 6 gusting 12 8.8
2020-Jan-18 03:40 037 9 gusting 12 8.9
2020-Jan-18 03:30 081 8 gusting 13 8.8
2020-Jan-18 03:20 077 9 gusting 13 9.0
2020-Jan-18 03:00 073 12 gusting 14 9.3
2020-Jan-18 02:50 074 12 gusting 14 9.3
2020-Jan-18 02:40 071 12 gusting 14 9.3
2020-Jan-18 02:30 075 13 gusting 15 9.4
2020-Jan-18 02:20 084 12 gusting 16 9.5
2020-Jan-18 02:00 076 13 gusting 15 9.6
2020-Jan-18 01:40 085 11 gusting 18 9.7
2020-Jan-18 01:30 082 13 gusting 17 9.8
2020-Jan-18 01:20 082 14 gusting 19 9.8
2020-Jan-18 01:00 088 16 gusting 18 9.8
2020-Jan-18 00:50 090 13 gusting 16 9.8
2020-Jan-18 00:40 082 12 gusting 16 9.8
2020-Jan-18 00:30 088 13 gusting 15 9.9
2020-Jan-18 00:20 081 11 gusting 13 10.0
2020-Jan-18 00:00 089 6 gusting 13 10.1
2020-Jan-17 23:50 084 6 gusting 11 10.1
2020-Jan-17 23:40 096 6 gusting 13 10.1
2020-Jan-17 23:30 092 7 gusting 13 10.1
2020-Jan-17 23:20 087 12 gusting 14 10.1
2020-Jan-17 23:00 090 6 gusting 10 10.2
2020-Jan-17 22:50 098 6 gusting 11 10.3
2020-Jan-17 22:40 096 6 gusting 13 10.4
2020-Jan-17 22:30 102 6 gusting 15 10.5
2020-Jan-17 22:20 093 7 gusting 12 10.6
2020-Jan-17 22:00 089 9 gusting 17 10.8
2020-Jan-17 21:50 089 8 gusting 12 11.0
2020-Jan-17 21:40 118 6 gusting 13 11.1
2020-Jan-17 21:30 091 8 gusting 17 11.1
2020-Jan-17 21:20 094 8 gusting 16 11.2
2020-Jan-17 21:00 087 6 gusting 14 11.3
2020-Jan-17 20:50 094 5 gusting 11 11.3
2020-Jan-17 20:40 084 9 gusting 13 11.3
2020-Jan-17 20:30 081 11 gusting 13 11.6
2020-Jan-17 20:20 089 9 gusting 16 11.6
2020-Jan-17 20:00 086 7 gusting 15 11.6
2020-Jan-17 19:50 092 5 gusting 16 11.5
2020-Jan-17 19:30 087 8 gusting 13 11.7
2020-Jan-17 19:20 094 12 gusting 13 11.6
2020-Jan-17 19:00 095 6 gusting 13 11.5
2020-Jan-17 18:50 080 13 gusting 13 11.5
2020-Jan-17 18:40 084 14 gusting 15 11.5
2020-Jan-17 18:30 060 9 gusting 16 11.4
2020-Jan-17 18:20 073 13 gusting 16 11.4
2020-Jan-17 18:00 049 10 gusting 16 11.6
2020-Jan-17 17:50 065 9 gusting 17 11.2
2020-Jan-17 17:40 054 8 gusting 13 11.3
2020-Jan-17 17:30 057 12 gusting 17 11.2
2020-Jan-17 17:20 056 7 gusting 16 11.1
2020-Jan-17 17:00 078 11 gusting 19 10.8
2020-Jan-17 16:50 074 11 gusting 19 10.9
2020-Jan-17 16:30 076 15 gusting 19 11.0
2020-Jan-17 16:20 078 13 gusting 17 11.1
2020-Jan-17 16:00 055 13 gusting 20 10.9
2020-Jan-17 15:50 070 15 gusting 23 10.9
2020-Jan-17 15:40 065 13 gusting 24 10.8
2020-Jan-17 15:30 058 19 gusting 21 10.7
2020-Jan-17 15:20 065 13 gusting 20 10.7
2020-Jan-17 15:00 026 13 gusting 19 10.7
2020-Jan-17 14:50 070 14 gusting 22 10.7
2020-Jan-17 14:40 058 13 gusting 18 10.8
2020-Jan-17 14:20 070 18 gusting 22 10.4
2020-Jan-17 14:00 058 14 gusting 22 10.6
2020-Jan-17 13:50 063 17 gusting 20 10.6
2020-Jan-17 13:30 064 11 gusting 20 10.5
2020-Jan-17 13:20 065 17 gusting 24 10.6
2020-Jan-17 13:00 067 12 gusting 14 10.5
2020-Jan-17 12:50 036 13 gusting 15 10.6
2020-Jan-17 12:40 009 10 gusting 13 10.6
2020-Jan-17 12:30 045 11 gusting 15 10.8
2020-Jan-17 12:20 041 12 gusting 14 10.8
2020-Jan-17 12:00 046 10 gusting 12 10.9
2020-Jan-17 11:50 030 7 gusting 11 11.0
2020-Jan-17 11:40 032 9 gusting 12 11.2
2020-Jan-17 11:30 053 6 gusting 13 11.2
2020-Jan-17 11:20 032 7 gusting 9 11.1
2020-Jan-17 11:00 048 6 gusting 10 11.4
2020-Jan-17 10:50 051 8 gusting 10 11.5
2020-Jan-17 10:40 055 6 gusting 10 11.5
2020-Jan-17 10:30 025 5 gusting 10 11.7
2020-Jan-17 10:20 049 6 gusting 11 11.7
2020-Jan-17 10:00 033 7 gusting 10 11.9
2020-Jan-17 09:50 028 6 gusting 11 12.0
2020-Jan-17 09:40 053 8 gusting 9 12.1
2020-Jan-17 09:30 053 5 gusting 10 12.1
2020-Jan-17 09:20 019 2 gusting 8 12.3
2020-Jan-17 09:00 033 3 gusting 8 12.4
2020-Jan-17 08:50 065 4 gusting 8 12.7
2020-Jan-17 08:40 300 2 gusting 8 12.8
2020-Jan-17 08:30 030 7 gusting 8 12.9
2020-Jan-17 08:20 036 3 gusting 9 12.9
2020-Jan-17 08:00 026 6 gusting 10 13.1
2020-Jan-17 07:50 026 4 gusting 8 13.2
2020-Jan-17 07:40 296 2 gusting 10 13.3
2020-Jan-17 07:30 031 5 gusting 9 13.5
2020-Jan-17 07:20 029 2 gusting 9 13.6
2020-Jan-17 07:00 028 6 gusting 10 13.7
2020-Jan-17 06:50 024 6 gusting 7 13.6
2020-Jan-17 06:40 345 2 gusting 7 13.7
2020-Jan-17 06:30 019 1 gusting 5 13.8
2020-Jan-17 06:20 322 3 gusting 7 13.9
2020-Jan-17 06:10 329 1 gusting 9 14.2
2020-Jan-17 06:00 028 7 gusting 9 14.3
2020-Jan-17 05:50 336 2 gusting 8 14.3
2020-Jan-17 05:40 015 2 gusting 6 14.5
2020-Jan-17 05:30 037 1 gusting 8 14.7
2020-Jan-17 05:20 005 2 gusting 8 14.8
2020-Jan-17 05:10 355 2 gusting 7 14.9
2020-Jan-17 04:50 347 1 gusting 7 15.2
2020-Jan-17 04:40 011 1 gusting 6 15.3
2020-Jan-17 04:30 360 4 gusting 6 15.4
2020-Jan-17 04:20 355 1 gusting 5 15.6
2020-Jan-17 04:10 005 2 gusting 7 16.0
2020-Jan-17 04:00 346 3 gusting 8 16.1
2020-Jan-17 03:50 297 2 gusting 6 16.1
2020-Jan-17 03:40 299 2 gusting 7 16.3
2020-Jan-17 03:30 337 3 gusting 6 16.4
2020-Jan-17 03:20 346 1 gusting 6 16.7
2020-Jan-17 03:00 026 1 gusting 7 17.3
2020-Jan-17 02:50 337 2 gusting 8 17.6
2020-Jan-17 02:40 342 1 gusting 9 17.8
2020-Jan-17 02:30 061 3 gusting 8 17.9
2020-Jan-17 02:20 022 3 gusting 7 18.1
2020-Jan-17 02:00 036 8 gusting 11 18.4
2020-Jan-17 01:50 019 7 gusting 9 18.6
2020-Jan-17 01:40 022 1 gusting 9 18.7
2020-Jan-17 01:30 034 6 gusting 10 18.9
2020-Jan-17 01:20 014 2 gusting 10 19.2
2020-Jan-17 01:10 360 2 gusting 11 19.4
2020-Jan-17 01:00 005 5 gusting 11 19.6
2020-Jan-17 00:50 040 6 gusting 11 19.8
2020-Jan-17 00:40 032 5 gusting 11 19.9
2020-Jan-17 00:30 341 0 gusting 12 20.1
2020-Jan-17 00:20 025 2 gusting 10 20.1
2020-Jan-17 00:00 325 4 gusting 8 20.8
2020-Jan-16 23:50 308 4 gusting 9 20.8
2020-Jan-16 23:40 329 4 gusting 8 21.0
2020-Jan-16 23:30 304 6 gusting 7 21.2
2020-Jan-16 23:20 302 4 gusting 7 21.4
2020-Jan-16 23:00 301 4 gusting 6 22.0
2020-Jan-16 22:50 311 3 gusting 6 22.2
2020-Jan-16 22:40 305 2 gusting 5 22.6
2020-Jan-16 22:30 308 4 gusting 4 22.8
2020-Jan-16 22:20 270 1 gusting 5 23.1
2020-Jan-16 22:10 294 4 gusting 6 23.2
2020-Jan-16 22:00 308 1 gusting 6 23.3
2020-Jan-16 21:50 290 3 gusting 6 23.3
2020-Jan-16 21:40 320 4 gusting 9 23.6
2020-Jan-16 21:30 355 1 gusting 11 23.8
2020-Jan-16 21:20 339 0 gusting 9 23.7
2020-Jan-16 21:00 333 4 gusting 7 23.6
2020-Jan-16 20:50 350 3 gusting 12 23.6
2020-Jan-16 20:40 342 2 gusting 10 23.7
2020-Jan-16 20:30 005 2 gusting 9 23.9
2020-Jan-16 20:20 017 2 gusting 13 23.8
2020-Jan-16 20:10 320 3 gusting 11 23.9
2020-Jan-16 20:00 306 4 gusting 12 24.0
2020-Jan-16 19:50 304 11 gusting 16 24.0
2020-Jan-16 19:40 277 7 gusting 14 23.7
2020-Jan-16 19:30 293 6 gusting 13 23.7
2020-Jan-16 19:20 331 12 gusting 13 23.7
2020-Jan-16 19:10 259 10 gusting 14 23.8
2020-Jan-16 19:00 279 6 gusting 12 23.8
2020-Jan-16 18:50 312 10 gusting 13 23.7
2020-Jan-16 18:40 301 7 gusting 16 23.4
2020-Jan-16 18:30 280 13 gusting 18 23.1
2020-Jan-16 18:20 299 6 gusting 17 23.0
2020-Jan-16 18:10 301 16 gusting 16 23.4
2020-Jan-16 18:00 257 8 gusting 14 23.5
2020-Jan-16 17:50 299 6 gusting 12 23.4
2020-Jan-16 17:40 288 12 gusting 16 22.9
2020-Jan-16 17:30 271 11 gusting 14 22.9
2020-Jan-16 17:20 268 7 gusting 20 22.7
2020-Jan-16 17:10 286 11 gusting 14 22.3
2020-Jan-16 17:00 274 6 gusting 12 22.2
2020-Jan-16 16:50 251 11 gusting 13 21.9
2020-Jan-16 16:40 273 7 gusting 13 21.9
2020-Jan-16 16:30 278 8 gusting 13 21.4
2020-Jan-16 16:20 271 5 gusting 13 21.3
2020-Jan-16 16:10 277 7 gusting 13 20.8
2020-Jan-16 16:00 252 13 gusting 13 20.7
2020-Jan-16 15:50 267 6 gusting 11 20.6
2020-Jan-16 15:40 262 5 gusting 11 20.6
2020-Jan-16 15:30 271 3 gusting 7 20.5
2020-Jan-16 15:20 225 4 gusting 6 20.1
2020-Jan-16 15:10 254 4 gusting 6 19.6
2020-Jan-16 15:00 275 2 gusting 6 19.4
2020-Jan-16 14:50 227 1 gusting 6 19.3
2020-Jan-16 14:40 255 4 gusting 7 19.1
2020-Jan-16 14:30 219 1 gusting 6 19.0
2020-Jan-16 14:20 198 2 gusting 5 18.9
2020-Jan-16 14:10 234 1 gusting 3 18.8
2020-Jan-16 14:00 203 1 gusting 3 18.7
2020-Jan-16 13:50 259 1 gusting 4 18.7
2020-Jan-16 13:40 254 1 gusting 7 18.7
2020-Jan-16 13:30 268 8 gusting 12 18.7
2020-Jan-16 13:20 279 7 gusting 10 18.8
2020-Jan-16 13:10 251 6 gusting 12 18.9
2020-Jan-16 13:00 242 10 gusting 13 19.1
2020-Jan-16 12:50 258 8 gusting 11 19.0
2020-Jan-16 12:40 267 5 gusting 6 18.7
2020-Jan-16 12:30 298 2 gusting 6 18.7
2020-Jan-16 12:20 261 0 gusting 3 18.6
2020-Jan-16 12:10 268 0 gusting 2 18.5
2020-Jan-16 12:00 263 1 gusting 2 18.4